EW1653 Weather Reports


time (UTC)temp
F
wind
direction
speed
knots
gust
knots
rain 1hr
in
rain 24hr
in
rain mn
in
humidity
%
barometer
mb
20221207222100 61 240 4.3 8.7 0.00 0.00 0.00 95 1020.0
20221207221559 61 229 5.2 8.7 0.00 0.00 0.00 95 1019.9
20221207221100 61 234 3.5 8.7 0.00 0.00 0.00 95 1020.3
20221207220559 61 254 3.5 8.7 0.00 0.00 0.00 95 1020.5
20221207220059 61 259 2.6 6.1 0.00 0.00 0.00 95 1020.1
20221207215559 61 271 3.5 9.6 0.00 0.00 0.00 95 1020.1
20221207215100 61 224 1.7 6.1 0.00 0.00 0.00 95 1020.1
20221207214602 61 268 1.7 7.8 0.00 0.00 0.00 95 1020.3
20221207214058 61 229 5.2 7.8 0.00 0.00 0.00 94 1019.9
20221207213558 62 240 4.3 7.0 0.00 0.00 0.00 94 1020.2
20221207213058 62 231 3.5 7.0 0.00 0.00 0.00 94 1020.5
20221207212558 62 247 5.2 7.0 0.00 0.00 0.00 94 1020.6
20221207212058 62 286 1.7 7.0 0.00 0.00 0.00 94 1020.7
20221207211558 62 266 2.6 5.2 0.00 0.00 0.00 94 1020.7
20221207211101 62 283 0.9 6.1 0.00 0.00 0.00 94 1020.4
20221207210601 62 277 1.7 7.8 0.00 0.00 0.00 94 1020.4
20221207210057 62 263 2.6 7.8 0.00 0.00 0.00 94 1020.5
20221207205556 62 309 3.5 7.0 0.00 0.00 0.00 94 1020.5
20221207205056 62 257 3.5 7.0 0.00 0.00 0.00 94 1020.5
20221207204558 62 269 3.5 7.0 0.00 0.00 0.00 94 1020.4
20221207204057 62 269 1.7 7.8 0.00 0.00 0.00 94 1020.3
20221207203555 62 225 4.3 10.4 0.00 0.00 0.00 94 1020.2
20221207203100 62 247 6.1 10.4 0.00 0.00 0.00 94 1020.3
20221207202556 62 250 0.0 7.8 0.00 0.00 0.00 94 1020.2
20221207202056 62 283 4.3 11.3 0.00 0.00 0.00 94 1019.9
20221207201557 62 237 5.2 11.3 0.00 0.00 0.00 94 1019.9
20221207201054 62 235 3.5 7.0 0.00 0.00 0.00 94 1020.0
20221207200554 62 231 1.7 6.1 0.00 0.00 0.00 94 1020.0
20221207200054 62 246 3.5 7.0 0.00 0.00 0.00 94 1019.8
20221207195553 62 318 2.6 9.6 0.00 0.00 0.00 94 1019.9
20221207195058 62 256 5.2 10.4 0.00 0.00 0.00 94 1019.4
20221207194553 62 229 5.2 10.4 0.00 0.00 0.00 94 1019.4
20221207194053 62 232 5.2 11.3 0.00 0.00 0.00 94 1019.5
20221207193551 62 239 7.0 11.3 0.00 0.00 0.00 94 1019.5
20221207193052 62 243 5.2 8.7 0.00 0.00 0.00 94 1019.7
20221207192550 62 230 4.3 10.4 0.00 0.00 0.00 94 1019.8
20221207192050 62 245 5.2 11.3 0.00 0.00 0.00 94 1019.9
20221207191550 62 231 7.0 12.2 0.00 0.00 0.00 94 1019.8
20221207191048 62 248 6.1 13.9 0.00 0.00 0.00 95 1020.0
20221207190550 62 229 7.8 13.9 0.00 0.00 0.00 95 1020.1
20221207190119 62 259 7.8 13.9 0.00 0.00 0.00 94 1020.1
20221207185546 62 233 7.0 10.4 0.00 0.00 0.00 95 1020.2
20221207185050 62 229 7.0 10.4 0.00 0.00 0.00 95 1020.2
20221207184545 62 237 5.2 13.0 0.00 0.00 0.00 95 1020.3
20221207184045 62 242 7.0 13.0 0.00 0.00 0.00 95 1020.3
20221207183544 62 233 7.0 13.0 0.00 0.00 0.00 95 1020.3
20221207183044 62 230 7.0 15.6 0.00 0.00 0.00 95 1020.3
20221207182543 62 260 9.6 15.6 0.00 0.00 0.00 95 1020.4
20221207182042 62 274 7.8 12.2 0.00 0.00 0.00 95 1020.5
20221207181542 62 235 6.1 12.2 0.00 0.00 0.00 95 1020.6
20221207181042 62 228 7.0 12.2 0.00 0.00 0.00 95 1020.4
20221207180540 62 203 6.1 8.7 0.00 0.00 0.00 95 1020.6
20221207180040 62 248 3.5 8.7 0.00 0.00 0.00 95 1020.7
20221207175539 62 238 6.1 12.2 0.00 0.00 0.00 95 1020.8
20221207175039 62 262 6.1 12.2 0.00 0.00 0.00 95 1020.8
20221207174540 62 231 7.0 9.6 0.00 0.00 0.00 95 1020.7
20221207174038 62 231 7.0 10.4 0.00 0.00 0.00 95 1020.9
20221207173537 62 237 6.1 10.4 0.00 0.00 0.00 95 1021.0
20221207173037 62 256 5.2 8.7 0.00 0.00 0.00 95 1021.0
20221207172536 62 240 6.1 7.8 0.00 0.00 0.00 96 1021.1
20221207172035 62 245 4.3 7.8 0.00 0.00 0.00 96 1021.1
20221207171544 62 233 5.2 7.8 0.00 0.00 0.00 96 1021.2
20221207171034 62 242 3.5 7.8 0.00 0.00 0.00 96 1021.4
20221207170537 62 242 4.3 7.8 0.00 0.00 0.00 96 1021.5
20221207170031 62 227 3.5 7.0 0.00 0.00 0.00 96 1021.6
20221207165531 62 243 3.5 7.0 0.00 0.00 0.00 96 1021.7
20221207165029 62 250 3.5 7.8 0.00 0.00 0.00 96 1021.7
20221207164530 62 245 5.2 9.6 0.00 0.00 0.00 96 1021.8
20221207164029 62 243 5.2 9.6 0.00 0.00 0.00 96 1021.8
20221207163528 62 229 3.5 8.7 0.00 0.00 0.00 96 1021.8
20221207163028 62 275 4.3 10.4 0.00 0.00 0.00 96 1021.9
20221207162527 62 252 6.1 10.4 0.00 0.00 0.00 96 1022.0
20221207162027 62 247 4.3 11.3 0.00 0.00 0.00 96 1022.0
20221207161526 62 235 7.0 12.2 0.00 0.00 0.00 96 1022.1
20221207161027 62 236 7.8 12.2 0.00 0.00 0.00 96 1022.4
20221207160526 62 261 7.8 9.6 0.00 0.00 0.00 96 1022.4
20221207160023 62 232 6.1 10.4 0.00 0.00 0.00 96 1022.2
20221207155522 61 236 5.2 10.4 0.00 0.00 0.00 96 1022.4
20221207155022 61 238 6.1 9.6 0.00 0.00 0.00 96 1022.5
20221207154624 61 236 7.0 9.6 0.00 0.00 0.00 97 1022.5
20221207154024 61 217 5.2 9.6 0.00 0.00 0.00 97 1022.4
20221207153521 61 226 6.1 8.7 0.00 0.00 0.00 97 1022.5
20221207153025 61 226 3.5 8.7 0.00 0.00 0.00 97 1022.6
20221207152521 61 228 4.3 9.6 0.00 0.00 0.00 97 1022.7
20221207152023 61 230 6.1 10.4 0.00 0.00 0.00 97 1022.5
20221207151519 61 224 4.3 10.4 0.00 0.00 0.00 97 1022.6
20221207151021 61 226 5.2 9.6 0.00 0.00 0.00 97 1022.5
20221207150518 61 221 5.2 9.6 0.00 0.00 0.00 97 1022.6
20221207150022 61 217 6.1 10.4 0.00 0.00 0.00 97 1022.5
20221207145525 61 225 6.1 10.4 0.00 0.00 0.00 97 1022.6
20221207145019 61 243 6.1 9.6 0.00 0.00 0.00 97 1022.6
20221207144522 61 219 5.2 7.8 0.00 0.00 0.00 97 1022.6
20221207144019 61 219 4.3 8.7 0.00 0.00 0.00 97 1022.5
20221207143515 61 229 5.2 7.8 0.00 0.00 0.00 97 1022.6
20221207143017 60 210 5.2 7.0 0.00 0.00 0.00 97 1022.5
20221207142514 60 186 4.3 6.1 0.00 0.00 0.00 97 1022.4
20221207142014 60 210 3.5 6.1 0.00 0.00 0.00 97 1022.6
20221207141518 60 210 3.5 7.0 0.00 0.00 0.00 97 1022.7
20221207141012 60 219 3.5 7.0 0.00 0.00 0.00 97 1022.7
20221207140513 60 226 3.5 6.1 0.00 0.00 0.00 97 1022.9
20221207140013 60 221 3.5 6.1 0.00 0.00 0.00 97 1022.9
20221207135511 59 229 3.5 5.2 0.00 0.00 0.00 97 1022.9
20221207135009 59 225 3.5 5.2 0.00 0.00 0.00 97 1023.0
20221207134521 59 221 2.6 5.2 0.00 0.00 0.00 97 1022.9
20221207134009 59 200 2.6 5.2 0.00 0.00 0.00 97 1022.9
20221207133510 59 219 2.6 5.2 0.00 0.00 0.00 97 1023.0
20221207133008 59 215 3.5 5.2 0.00 0.00 0.00 97 1023.0
20221207132508 59 219 2.6 4.3 0.00 0.00 0.00 97 1023.0
20221207132006 59 199 2.6 5.2 0.00 0.00 0.00 97 1023.0
20221207131508 59 204 1.7 5.2 0.00 0.00 0.00 97 1023.0
20221207131006 59 196 1.7 5.2 0.00 0.00 0.00 97 1023.1
20221207130508 59 224 1.7 4.3 0.00 0.00 0.00 97 1023.1
20221207130006 58 213 1.7 4.3 0.00 0.00 0.00 97 1023.0
20221207125505 58 233 2.6 4.3 0.00 0.00 0.00 97 1023.1
20221207125010 58 208 2.6 4.3 0.00 0.00 0.00 97 1023.0
20221207124510 58 208 2.6 4.3 0.00 0.00 0.00 97 1022.8
20221207124006 58 176 1.7 3.5 0.00 0.00 0.00 97 1022.8
20221207123504 58 219 1.7 3.5 0.00 0.00 0.00 97 1022.8
20221207123004 58 206 1.7 3.5 0.00 0.00 0.00 97 1022.9
20221207122505 58 212 1.7 3.5 0.00 0.00 0.00 97 1022.8
20221207122004 58 193 1.7 3.5 0.00 0.00 0.00 97 1022.7
20221207121504 58 168 1.7 2.6 0.00 0.00 0.00 97 1022.7
20221207121004 58 182 1.7 2.6 0.00 0.00 0.00 97 1022.6
20221207120504 58 198 1.7 2.6 0.00 0.00 0.00 97 1022.6
20221207120002 58 214 0.9 2.6 0.00 0.00 0.00 97 1022.7
20221207115505 58 186 1.7 2.6 0.00 0.00 0.00 97 1022.6
20221207115003 58 165 0.9 2.6 0.00 0.00 0.00 97 1022.6
20221207114503 58 196 0.9 2.6 0.00 0.00 0.00 97 1022.7
20221207114002 58 219 1.7 2.6 0.00 0.00 0.00 97 1022.8
20221207113504 58 213 0.9 2.6 0.00 0.00 0.00 97 1022.7
20221207113002 58 205 0.9 2.6 0.00 0.00 0.00 97 1022.6
20221207112502 58 180 0.9 3.5 0.00 0.00 0.00 97 1022.6
20221207112001 58 201 0.9 3.5 0.00 0.00 0.00 97 1022.6
20221207111501 58 210 1.7 3.5 0.00 0.00 0.00 97 1022.5
20221207111002 58 190 1.7 3.5 0.00 0.00 0.00 97 1022.5
20221207110501 58 206 1.7 3.5 0.00 0.00 0.00 97 1022.6
20221207110101 58 207 2.6 3.5 0.00 0.00 0.00 97 1022.5
20221207105601 58 203 1.7 5.2 0.00 0.00 0.00 97 1022.5
20221207105100 58 212 2.6 6.1 0.00 0.00 0.00 97 1022.5
20221207104607 58 157 1.7 5.2 0.00 0.00 0.00 97 1022.4
20221207104500 58 181 1.7 5.2 0.00 0.00 0.00 97 1022.4
20221207104101 58 178 1.7 7.0 0.00 0.00 0.00 97 1022.4
20221207103600 58 179 2.6 7.0 0.00 0.00 0.00 97 1022.4
20221207103059 58 162 2.6 7.8 0.00 0.00 0.00 97 1022.4
20221207102558 58 203 4.3 7.8 0.00 0.00 0.00 97 1022.4
20221207102100 58 182 4.3 8.7 0.00 0.00 0.00 97 1022.5
20221207101601 58 171 6.1 8.7 0.00 0.00 0.00 97 1022.5
20221207101055 58 184 5.2 8.7 0.00 0.00 0.00 96 1022.6
20221207100557 58 178 3.5 6.1 0.00 0.00 0.00 96 1022.6
20221207100055 58 193 2.6 7.0 0.00 0.00 0.00 96 1022.7
20221207095554 58 190 3.5 7.0 0.00 0.00 0.00 96 1022.8
20221207095054 58 190 2.6 6.1 0.00 0.00 0.00 96 1022.9
20221207094554 58 210 4.3 6.1 0.00 0.00 0.00 96 1022.9
20221207094054 58 185 3.5 5.2 0.00 0.00 0.00 96 1022.8
20221207093555 58 190 2.6 5.2 0.00 0.00 0.00 96 1022.7
20221207093101 58 193 2.6 7.0 0.00 0.00 0.00 96 1022.7
20221207092553 58 171 2.6 7.0 0.00 0.00 0.00 96 1022.7
20221207092053 58 172 2.6 5.2 0.00 0.00 0.00 96 1022.7
20221207091554 59 201 3.5 6.1 0.00 0.00 0.00 96 1022.8
20221207091052 58 191 2.6 6.1 0.00 0.00 0.00 96 1022.8
20221207090552 59 203 3.5 6.1 0.00 0.00 0.00 96 1022.8
20221207090051 59 177 3.5 7.0 0.00 0.00 0.00 96 1022.8
20221207085551 59 191 4.3 7.0 0.00 0.00 0.00 96 1022.8
20221207085053 59 176 2.6 5.2 0.00 0.00 0.00 96 1022.9
20221207084603 59 165 1.7 5.2 0.00 0.00 0.00 96 1022.8
20221207084052 59 195 3.5 5.2 0.00 0.00 0.00 96 1022.9
20221207083550 59 176 2.6 6.1 0.00 0.00 0.00 96 1023.0
20221207083049 59 195 2.6 6.1 0.00 0.00 0.00 96 1023.0
20221207082549 59 207 2.6 5.2 0.00 0.00 0.00 96 1023.0
20221207082048 59 193 2.6 6.1 0.00 0.00 0.00 96 1023.0
20221207081608 59 184 3.5 7.0 0.00 0.00 0.00 96 1023.0
20221207081049 59 205 3.5 7.0 0.00 0.00 0.00 96 1023.0
20221207080548 59 198 3.5 6.1 0.00 0.00 0.00 96 1022.9
20221207080047 59 180 3.5 6.1 0.00 0.00 0.00 96 1023.0
20221207075547 59 198 3.5 5.2 0.00 0.00 0.00 96 1023.1
20221207075051 59 184 3.5 5.2 0.00 0.00 0.00 96 1023.1
20221207074546 58 189 3.5 6.1 0.00 0.00 0.00 96 1023.2
20221207074045 58 187 3.5 6.1 0.00 0.00 0.00 96 1023.3
20221207073545 58 186 3.5 5.2 0.00 0.00 0.00 96 1023.3
20221207073047 58 183 3.5 6.1 0.00 0.00 0.00 96 1023.3
20221207072549 58 184 2.6 5.2 0.00 0.00 0.00 96 1023.3
20221207072045 58 200 2.6 7.0 0.00 0.00 0.00 96 1023.3
20221207071545 58 211 3.5 7.0 0.00 0.00 0.00 96 1023.3
20221207071044 58 222 3.5 6.1 0.00 0.00 0.00 96 1023.3
20221207070544 58 217 2.6 6.1 0.00 0.00 0.00 96 1023.3
20221207070043 58 198 3.5 8.7 0.00 0.00 0.00 96 1023.3
20221207065544 58 207 5.2 8.7 0.00 0.00 0.00 96 1023.2
20221207065042 58 214 5.2 7.0 0.00 0.00 0.00 96 1023.3
20221207064553 58 172 4.3 7.0 0.00 0.00 0.00 96 1023.3
20221207064042 59 198 4.3 6.1 0.00 0.00 0.00 95 1023.2
20221207063544 59 221 4.3 7.0 0.00 0.00 0.00 95 1023.2
20221207063052 59 194 4.3 7.0 0.00 0.00 0.00 95 1023.2
20221207062541 59 185 3.5 7.0 0.00 0.00 0.00 95 1023.1
20221207062041 59 202 3.5 7.0 0.00 0.00 0.00 95 1023.2
20221207061540 59 200 3.5 6.1 0.00 0.00 0.00 95 1023.2
20221207061040 59 198 4.3 6.1 0.00 0.00 0.00 95 1023.1
20221207060540 59 188 3.5 6.1 0.00 0.00 0.00 95 1023.2
20221207060043 59 184 3.5 7.0 0.00 0.00 0.00 95 1023.4
20221207055536 59 207 2.6 7.0 0.00 0.00 0.00 95 1023.4
20221207055039 59 213 3.5 5.2 0.00 0.00 0.00 95 1023.4
20221207054536 59 198 2.6 6.1 0.00 0.00 0.00 95 1023.3
20221207054036 59 229 2.6 7.0 0.00 0.00 0.00 95 1023.3
20221207053542 59 208 4.3 7.0 0.00 0.00 0.00 95 1023.4
20221207053040 59 219 2.6 7.0 0.00 0.00 0.00 95 1023.3
20221207052535 59 223 4.3 7.8 0.00 0.00 0.00 95 1023.3
20221207052034 59 210 3.5 7.8 0.00 0.00 0.00 95 1023.3
20221207051540 59 185 4.3 7.0 0.00 0.00 0.00 95 1023.2
20221207051036 59 219 5.2 8.7 0.00 0.00 0.00 95 1023.3
20221207050532 59 215 4.3 8.7 0.00 0.00 0.00 95 1023.2
20221207050031 59 221 6.1 9.6 0.00 0.00 0.00 95 1023.1
20221207045530 59 223 6.1 9.6 0.00 0.00 0.00 95 1023.2
20221207045030 59 244 5.2 9.6 0.00 0.00 0.00 95 1023.2
20221207044552 59 207 5.2 9.6 0.00 0.00 0.00 95 1023.2
20221207044031 59 173 5.2 7.8 0.00 0.00 0.00 95 1023.3
20221207043529 59 207 4.3 10.4 0.00 0.00 0.00 95 1023.4
20221207043038 59 210 6.1 10.4 0.00 0.00 0.00 95 1023.5
20221207042532 59 210 5.2 10.4 0.00 0.00 0.00 95 1023.5
20221207042029 59 229 5.2 8.7 0.00 0.00 0.00 95 1023.4
20221207041539 59 206 6.1 9.6 0.00 0.00 0.00 95 1023.3
20221207041028 59 182 6.1 10.4 0.00 0.00 0.00 95 1023.3
20221207040529 59 193 7.0 10.4 0.00 0.00 0.00 94 1023.3
20221207040028 59 217 6.1 9.6 0.00 0.00 0.00 95 1023.2
20221207035528 59 159 5.2 9.6 0.00 0.00 0.00 94 1023.1
20221207035027 59 200 5.2 9.6 0.00 0.00 0.00 94 1023.2
20221207034527 59 198 6.1 9.6 0.00 0.00 0.00 94 1023.2
20221207034030 59 174 4.3 10.4 0.00 0.00 0.00 94 1023.2
20221207033530 59 206 6.1 10.4 0.00 0.00 0.00 94 1023.4
20221207033027 58 198 7.0 10.4 0.00 0.00 0.00 94 1023.3
20221207032528 58 219 6.1 12.2 0.00 0.00 0.00 94 1023.4
20221207032027 58 220 5.2 12.2 0.00 0.00 0.00 94 1023.4
20221207031527 59 212 5.2 10.4 0.00 0.00 0.00 94 1023.4
20221207031029 59 206 5.2 10.4 0.00 0.00 0.00 94 1023.4
20221207030528 59 184 7.0 10.4 0.00 0.00 0.00 94 1023.4
20221207030025 59 173 7.0 10.4 0.00 0.00 0.00 94 1023.4
20221207025526 59 198 5.2 9.6 0.00 0.00 0.00 94 1023.5
20221207025025 59 172 6.1 8.7 0.00 0.00 0.00 93 1023.5
20221207024524 59 231 5.2 9.6 0.00 0.00 0.00 93 1023.5
20221207024028 59 214 5.2 9.6 0.00 0.00 0.00 93 1023.6
20221207023524 59 199 4.3 8.7 0.00 0.00 0.00 93 1023.7
20221207023025 59 193 5.2 9.6 0.00 0.00 0.00 93 1023.7
20221207022523 59 209 5.2 9.6 0.00 0.00 0.00 93 1023.7
20221207022023 59 198 5.2 8.7 0.00 0.00 0.00 93 1023.7
20221207021526 60 205 5.2 8.7 0.00 0.00 0.00 93 1023.8
20221207021022 60 203 6.1 9.6 0.00 0.00 0.00 93 1023.7
20221207020523 60 212 7.0 10.4 0.00 0.00 0.00 93 1023.6
20221207020021 60 192 7.8 10.4 0.00 0.00 0.00 94 1023.6
20221207015520 59 203 6.1 9.6 0.00 0.00 0.00 93 1023.5
20221207015018 59 208 6.1 9.6 0.00 0.00 0.00 93 1023.5
20221207014536 59 200 7.0 10.4 0.00 0.00 0.00 93 1023.5
20221207014017 59 193 6.1 10.4 0.00 0.00 0.00 93 1023.5
20221207013518 59 211 5.2 10.4 0.00 0.00 0.00 93 1023.5
20221207013017 59 204 7.0 10.4 0.00 0.00 0.00 93 1023.5
20221207012517 59 186 7.8 10.4 0.00 0.00 0.00 94 1023.4
20221207012019 59 189 5.2 10.4 0.00 0.00 0.00 93 1023.5
20221207011516 59 187 5.2 7.8 0.00 0.00 0.00 93 1023.6
20221207011116 59 179 5.2 7.0 0.00 0.00 0.00 93 1023.7
20221207010516 59 215 5.2 9.6 0.00 0.00 0.00 93 1023.8
20221207010015 59 205 4.3 9.6 0.00 0.00 0.00 93 1023.8
20221207005512 59 202 5.2 9.6 0.00 0.00 0.00 93 1023.7
20221207005011 59 202 4.3 9.6 0.00 0.00 0.00 93 1023.6
20221207004522 59 189 6.1 11.3 0.00 0.00 0.00 93 1023.6
20221207004008 59 209 6.1 11.3 0.00 0.00 0.00 93 1023.6
20221207003508 59 214 6.1 11.3 0.00 0.00 0.00 93 1023.6
20221207003013 59 191 7.0 11.3 0.00 0.00 0.00 93 1023.5
20221207002507 59 219 7.8 12.2 0.00 0.00 0.00 93 1023.6
20221207002007 59 238 7.0 11.3 0.00 0.00 0.00 93 1023.4
20221207001507 59 212 6.1 12.2 0.00 0.00 0.00 93 1023.6
20221207001011 59 218 7.0 13.0 0.00 0.00 0.00 93 1023.4
20221207000507 59 214 8.7 13.9 0.00 0.00 0.00 93 1023.4
20221207000006 59 191 7.0 13.9 0.00 0.00 0.00 93 1023.5
20221206235506 59 182 7.8 17.4 0.00 0.00 0.00 93 1023.6
20221206235006 59 221 7.0 17.4 0.00 0.00 0.00 93 1023.5
20221206234510 59 217 7.8 13.0 0.00 0.00 0.00 93 1023.6
20221206234005 59 224 7.0 10.4 0.00 0.00 0.00 93 1023.7
20221206233505 59 211 5.2 10.4 0.00 0.00 0.00 93 1023.6
20221206233005 59 203 6.1 10.4 0.00 0.00 0.00 93 1023.5
20221206232506 59 221 7.0 9.6 0.00 0.00 0.00 93 1023.6
20221206232004 59 178 5.2 9.6 0.00 0.00 0.00 93 1023.6
20221206231504 59 182 5.2 9.6 0.00 0.00 0.00 93 1023.6
20221206231004 59 214 7.0 10.4 0.00 0.00 0.00 92 1023.6
20221206230503 59 212 7.0 13.0 0.00 0.00 0.00 92 1023.6
20221206230003 59 212 8.7 13.0 0.00 0.00 0.00 92 1023.6
20221206225503 59 201 5.2 11.3 0.00 0.00 0.00 92 1023.5
20221206225004 59 214 6.1 12.2 0.00 0.00 0.00 92 1023.5
20221206224503 59 209 7.0 12.2 0.00 0.00 0.00 92 1023.6
20221206224003 59 197 6.1 11.3 0.00 0.00 0.00 92 1023.6
20221206223503 59 200 7.0 11.3 0.00 0.00 0.00 92 1023.6
20221206223002 59 215 7.8 11.3 0.00 0.00 0.00 92 1023.6